Location: Goettingen
(51.5300°N, 9.9433°E)
Time: 06:45:23
(UTC+02:00)

ISS - Pass Details

Date: 21 March 2017
Orbit: 401 x 408 km, 51.6° (Epoch: 22 October)

Event Time Altitude Azimuth Distance (km) Brightness Sun altitude
Exits shadow 03:18:06 10° 108° (ESE) 1,497 -0.6 -27.0°
Drops below altitude 10° 03:18:08 10° 108° (ESE) 1,511 -0.6 -27.0°
Enters shadow 04:19:40 -58° 298° (WNW) 11,263 3.4 -19.0°
